Content
SEND FEEDBACK

Daily
Averages
Monthly
Summary
United States of America

LANCASTER, KENTUCKY


Home > North America > United States > Kentucky
Elevation: 103 feet     Latitude: 37 37N     Longitude: 084 35W

WEATHER
 
SELECT A DAY
Number of Records: 156,866;   Date Range: 3/25/08 - 10/24/14
 
SHARE

PRINT THIS DATA

[ ← Previous Day ]
WEATHER ALMANAC - JULY 20, 2014
[ Next Day → ]
[ °C ]   °F
Weather ElementAverageHighLow
Temperature73.1 °F82.4 °F (11:55 am)68 °F (1:15 am)
Dewpoint68.3 °F69.8 °F (2:15 pm)66.2 °F (9:35 am)
Humidity86.4 %100 % (4:55 am)58 % (12:55 pm)
Barometer30.05 in30.08 in (8:55 am)30.02 in (3:55 am)
Wind Speed2.8 mph9.2 mph (3:15 pm)
Weather ElementAverage
Visibility9.2 mi
Wind DirectionSE (132.4 °)

Weather ElementTotal
Precipitation---
Cooling Degree Days10.2 (Base 65)
Growing Degree Days25.2 (Base 50)
Averaged from 71 records on July 20, 2014
WEATHER CONDITIONS BREAKOUT
WIND DIRECTION BREAKOUT
WEATHER BY HOUR - JULY 20, 2014
[ °C ]   °F
Local TimeTemperatureDewpointHumidityBarometerVisibilityWind DirectionWind SpeedGust SpeedPrecipitationEventsConditions
12:15 AM68.0 °F68.0 °F100 %30.04 in10.0 miCalmOvercast
12:35 AM68.0 °F68.0 °F100 %30.04 in10.0 miCalmOvercast
12:55 AM68.0 °F68.0 °F100 %30.04 in10.0 miCalmOvercast
1:15 AM68.0 °F68.0 °F100 %30.03 in10.0 miCalmOvercast
1:35 AM68.0 °F68.0 °F100 %30.03 in10.0 miCalmOvercast
1:55 AM68.0 °F68.0 °F100 %30.03 in7.0 miCalmOvercast
2:15 AM68.0 °F68.0 °F100 %30.03 in10.0 miCalmOvercast
2:35 AM68.0 °F68.0 °F100 %30.02 in7.0 miCalmOvercast
2:55 AM68.0 °F68.0 °F100 %30.02 in7.0 miCalmOvercast
3:15 AM68.0 °F68.0 °F100 %30.02 in5.0 miCalmRainRain
3:35 AM68.0 °F68.0 °F100 %30.02 in7.0 miCalmOvercast
3:55 AM68.0 °F68.0 °F100 %30.02 in5.0 miCalmOvercast
4:15 AM68.0 °F68.0 °F100 %30.02 in5.0 miCalmRainHeavy Rain
4:35 AM68.0 °F68.0 °F100 %30.02 in3.0 miCalmOvercast
4:55 AM68.0 °F68.0 °F100 %30.02 in2.5 miCalmOvercast
5:15 AM68.0 °F68.0 °F100 %30.03 in4.0 miCalmOvercast
5:35 AM68.0 °F68.0 °F100 %30.03 in7.0 miCalmOvercast
5:55 AM68.0 °F68.0 °F100 %30.03 in7.0 miCalmOvercast
6:15 AM68.0 °F68.0 °F100 %30.03 in10.0 miCalmOvercast
6:35 AM68.0 °F68.0 °F100 %30.04 in10.0 miCalmOvercast
6:55 AM68.0 °F68.0 °F100 %30.05 in10.0 miCalmOvercast
7:15 AM68.0 °F68.0 °F100 %30.05 in10.0 miCalmOvercast
7:35 AM68.0 °F68.0 °F100 %30.05 in10.0 miCalmOvercast
7:55 AM68.0 °F68.0 °F100 %30.05 in10.0 miCalmOvercast
8:15 AM68.0 °F68.0 °F100 %30.06 in10.0 miSW (220°)3.5 mphOvercast
8:35 AM69.8 °F68.0 °F94 %30.07 in10.0 miWSW (240°)3.5 mphOvercast
8:55 AM69.8 °F69.8 °F100 %30.07 in10.0 miSW (220°)4.6 mphOvercast
9:15 AM69.8 °F69.8 °F100 %30.07 in10.0 miSouth (190°)3.5 mphOvercast
9:35 AM69.8 °F69.8 °F100 %30.08 in10.0 miSouth (190°)3.5 mphOvercast
9:55 AM69.8 °F69.8 °F100 %30.08 in10.0 miSouth (190°)3.5 mphOvercast
10:15 AM71.6 °F69.8 °F94 %30.08 in10.0 miSSW (210°)3.5 mphOvercast
10:35 AM71.6 °F69.8 °F94 %30.08 in10.0 miSouth (170°)5.8 mphOvercast
10:55 AM73.4 °F69.8 °F88 %30.08 in10.0 miSouth (180°)5.8 mphOvercast
11:15 AM73.4 °F69.8 °F88 %30.08 in10.0 miSouth (170°)4.6 mphOvercast
11:35 AM75.2 °F69.8 °F83 %30.07 in10.0 miSSW (200°)6.9 mphOvercast
11:55 AM77.0 °F69.8 °F78 %30.07 in10.0 miSW (220°)9.2 mphMostly Cloudy
12:15 PM77.0 °F68.0 °F74 %30.07 in10.0 miSSW (210°)5.8 mphMostly Cloudy
12:35 PM80.6 °F69.8 °F70 %30.07 in10.0 miSW (230°)4.6 mphMostly Cloudy
12:55 PM78.8 °F69.8 °F74 %30.07 in10.0 miWest (270°)5.8 mphOvercast
1:15 PM78.8 °F68.0 °F69 %30.06 in10.0 miWSW (250°)4.6 mphOvercast
1:35 PM77.0 °F69.8 °F78 %30.06 in10.0 miCalmRainLight Rain
1:55 PM78.8 °F68.0 °F69 %30.05 in10.0 miWest (260°)8.1 mphOvercast
2:15 PM80.6 °F68.0 °F65 %30.05 in10.0 miWest (280°)6.9 mphScattered Clouds
2:35 PM78.8 °F68.0 °F69 %30.05 in10.0 miNW (310°)6.9 mphMostly Cloudy
2:55 PM78.8 °F68.0 °F69 %30.04 in10.0 miNW (310°)6.9 mphOvercast
3:15 PM80.6 °F69.8 °F70 %30.04 in10.0 miNNW (330°)4.6 mphMostly Cloudy
3:35 PM80.6 °F68.0 °F65 %30.03 in10.0 miNW (310°)5.8 mphMostly Cloudy
3:55 PM80.6 °F68.0 °F65 %30.03 in10.0 miNW (320°)5.8 mphMostly Cloudy
4:15 PM80.6 °F68.0 °F65 %30.03 in10.0 miWNW (300°)4.6 mphMostly Cloudy
4:55 PM80.6 °F68.0 °F65 %30.03 in10.0 miNW (320°)4.6 mphScattered Clouds
5:15 PM82.4 °F68.0 °F62 %30.03 in10.0 miNW (320°)5.8 mphMostly Cloudy
5:35 PM82.4 °F68.0 °F62 %30.03 in10.0 miWNW (300°)5.8 mphMostly Cloudy
5:55 PM82.4 °F68.0 °F62 %30.04 in10.0 miNW (310°)4.6 mphScattered Clouds
6:15 PM80.6 °F68.0 °F65 %30.03 in10.0 miNNW (330°)6.9 mphScattered Clouds
6:35 PM82.4 °F66.2 °F58 %30.03 in10.0 miNW (310°)5.8 mphClear
6:55 PM80.6 °F68.0 °F65 %30.03 in10.0 miNNW (330°)8.1 mphScattered Clouds
7:15 PM80.6 °F68.0 °F65 %30.03 in10.0 miNW (320°)6.9 mphClear
7:35 PM80.6 °F68.0 °F65 %30.03 in10.0 miNNW (340°)4.6 mphClear
7:55 PM78.8 °F68.0 °F69 %30.04 in10.0 miNNW (340°)4.6 mphClear
8:15 PM77.0 °F68.0 °F74 %30.05 in10.0 miNorth (360°)3.5 mphClear
8:35 PM75.2 °F68.0 °F78 %30.04 in10.0 miNorth (10°)3.5 mphClear
8:55 PM73.4 °F68.0 °F83 %30.05 in10.0 miCalmClear
9:15 PM71.6 °F68.0 °F88 %30.05 in10.0 miNNE (30°)3.5 mphClear
9:35 PM71.6 °F68.0 °F88 %30.05 in10.0 miCalmClear
9:55 PM71.6 °F68.0 °F88 %30.07 in10.0 miCalmClear
10:15 PM69.8 °F68.0 °F94 %30.07 in10.0 miCalmClear
10:35 PM69.8 °F68.0 °F94 %30.06 in10.0 miCalmClear
10:55 PM69.8 °F68.0 °F94 %30.06 in10.0 miCalmClear
11:15 PM68.0 °F68.0 °F100 %30.06 in10.0 miCalmClear
11:35 PM68.0 °F68.0 °F100 %30.06 in10.0 miCalmClear
11:55 PM68.0 °F66.2 °F94 %30.06 in10.0 miCalmClear
Hourly data recorded from KDVK, located miles away from Lancaster, Kentucky







STORIES FROM OUR PARTNERS